• In Netherlands
  • List of Countries
  • For 7 days
  • Water Temperature
  • Satellite Maps
  • Weather Map
  • Weather Widgets
  • user-avatar
    Login

    Hourly Weather Parakou

    Today, 21 July, Friday

    Time Temperature Precipitation Wind Pressure Humidity
    00:00 +25°C° 0 mm 1 mps 729 mmHg 92%
    01:00 +25°C° 0.1 mm 1 mps 728 mmHg 93%
    02:00 +24°C° 0.1 mm 1 mps 728 mmHg 95%
    03:00 +24°C° 0.1 mm 1 mps 728 mmHg 96%
    04:00 +24°C° 0.1 mm 1 mps 728 mmHg 97%
    05:00 +24°C° 0.1 mm 2 mps 729 mmHg 97%
    06:00 +24°C° 0.1 mm 2 mps 729 mmHg 98%
    07:00 +25°C° 0.1 mm 2 mps 729 mmHg 93%
    08:00 +26°C° 0.1 mm 2 mps 730 mmHg 88%
    09:00 +27°C° 0.1 mm 3 mps 730 mmHg 83%
    10:00 +29°C° 0.1 mm 3 mps 729 mmHg 78%
    11:00 +30°C° 0.1 mm 2 mps 729 mmHg 72%
    12:00 +31°C° 0.1 mm 2 mps 729 mmHg 66%
    13:00 +32°C° 0 mm 2 mps 728 mmHg 64%
    14:00 +32°C° 0 mm 2 mps 727 mmHg 61%
    15:00 +34°C° 0 mm 2 mps 727 mmHg 59%
    16:00 +31°C° 0.3 mm 2 mps 727 mmHg 65%
    17:00 +30°C° 0.3 mm 1 mps 727 mmHg 72%
    18:00 +29°C° 0.3 mm 1 mps 726 mmHg 78%
    19:00 +28°C° 0.1 mm 1 mps 727 mmHg 81%
    20:00 +27°C° 0.1 mm 1 mps 727 mmHg 84%
    21:00 +26°C° 0.1 mm 1 mps 728 mmHg 87%
    22:00 +26°C° 0.3 mm 2 mps 728 mmHg 89%
    23:00 +26°C° 0.3 mm 2 mps 728 mmHg 91%

    Tomorrow, 22 July, Saturday

    Time Temperature Precipitation Wind Pressure Humidity
    00:00 +25°C° 0.3 mm 2 mps 728 mmHg 93%
    01:00 +25°C° 1.4 mm 2 mps 728 mmHg 94%
    02:00 +25°C° 1.4 mm 2 mps 728 mmHg 95%
    03:00 +24°C° 1.4 mm 3 mps 728 mmHg 96%
    04:00 +24°C° 0.1 mm 3 mps 728 mmHg 96%
    05:00 +24°C° 0.1 mm 3 mps 728 mmHg 97%
    06:00 +24°C° 0.1 mm 3 mps 729 mmHg 97%
    07:00 +25°C° 0 mm 3 mps 729 mmHg 94%
    08:00 +26°C° 0 mm 3 mps 730 mmHg 91%
    09:00 +26°C° 0 mm 3 mps 730 mmHg 88%
    10:00 +27°C° 0 mm 3 mps 730 mmHg 83%
    11:00 +29°C° 0 mm 3 mps 729 mmHg 77%
    12:00 +30°C° 0 mm 2 mps 729 mmHg 72%
    13:00 +30°C° 0.2 mm 2 mps 728 mmHg 73%
    14:00 +30°C° 0.2 mm 2 mps 728 mmHg 73%
    15:00 +30°C° 0.2 mm 2 mps 727 mmHg 74%
    16:00 +29°C° 2 mm 2 mps 727 mmHg 79%
    17:00 +28°C° 2 mm 2 mps 727 mmHg 85%
    18:00 +26°C° 2 mm 2 mps 726 mmHg 90%
    19:00 +26°C° 0.8 mm 2 mps 727 mmHg 91%
    20:00 +26°C° 0.8 mm 2 mps 728 mmHg 92%
    21:00 +25°C° 0.8 mm 2 mps 729 mmHg 94%
    22:00 +25°C° 0 mm 2 mps 729 mmHg 94%
    23:00 +25°C° 0 mm 2 mps 729 mmHg 95%

    Day after tomorrow, 23 July, Sunday

    Time Temperature Precipitation Wind Pressure Humidity
    00:00 +24°C° 0 mm 3 mps 728 mmHg 96%
    01:00 +24°C° 0 mm 3 mps 728 mmHg 96%
    02:00 +24°C° 0 mm 3 mps 728 mmHg 96%
    03:00 +24°C° 0 mm 3 mps 728 mmHg 96%
    04:00 +24°C° 0 mm 3 mps 728 mmHg 96%
    05:00 +24°C° 0 mm 3 mps 729 mmHg 96%
    06:00 +24°C° 0 mm 3 mps 729 mmHg 95%
    07:00 +25°C° 0 mm 3 mps 730 mmHg 93%
    08:00 +25°C° 0 mm 3 mps 730 mmHg 90%
    09:00 +26°C° 0 mm 3 mps 731 mmHg 87%
    10:00 +27°C° 0.1 mm 3 mps 730 mmHg 84%
    11:00 +28°C° 0.1 mm 3 mps 730 mmHg 80%
    12:00 +28°C° 0.1 mm 3 mps 730 mmHg 77%
    13:00 +29°C° 0.3 mm 2 mps 729 mmHg 74%
    14:00 +30°C° 0.3 mm 2 mps 728 mmHg 71%
    15:00 +30°C° 0.3 mm 2 mps 728 mmHg 69%
    16:00 +29°C° 0.9 mm 2 mps 728 mmHg 76%
    17:00 +28°C° 0.9 mm 2 mps 728 mmHg 83%
    18:00 +27°C° 0.9 mm 2 mps 728 mmHg 90%
    19:00 +26°C° 0.6 mm 2 mps 729 mmHg 92%
    20:00 +25°C° 0.6 mm 2 mps 730 mmHg 93%
    21:00 +25°C° 0.6 mm 2 mps 730 mmHg 95%
    22:00 +24°C° 0 mm 2 mps 730 mmHg 96%
    23:00 +24°C° 0 mm 2 mps 730 mmHg 96%

    24 July, Monday

    Time Temperature Precipitation Wind Pressure Humidity
    00:00 +24°C° 0 mm 2 mps 730 mmHg 97%
    01:00 +24°C° 0 mm 2 mps 730 mmHg 97%
    02:00 +24°C° 0 mm 2 mps 729 mmHg 97%
    03:00 +24°C° 0 mm 3 mps 729 mmHg 96%
    04:00 +24°C° 0 mm 2 mps 729 mmHg 96%
    05:00 +24°C° 0 mm 2 mps 730 mmHg 96%
    06:00 +24°C° 0 mm 2 mps 730 mmHg 96%
    07:00 +24°C° 0.1 mm 2 mps 730 mmHg 94%
    08:00 +24°C° 0.1 mm 3 mps 731 mmHg 92%
    09:00 +25°C° 0.1 mm 3 mps 731 mmHg 91%
    10:00 +25°C° 0.1 mm 3 mps 731 mmHg 87%
    11:00 +26°C° 0.1 mm 3 mps 730 mmHg 84%
    12:00 +27°C° 0.1 mm 3 mps 730 mmHg 80%
    13:00 +28°C° 0.1 mm 3 mps 729 mmHg 75%
    14:00 +29°C° 0.1 mm 2 mps 728 mmHg 71%
    15:00 +30°C° 0.1 mm 2 mps 728 mmHg 66%
    16:00 +29°C° 0.3 mm 2 mps 728 mmHg 72%
    17:00 +28°C° 0.3 mm 2 mps 728 mmHg 78%
    18:00 +27°C° 0.3 mm 1 mps 728 mmHg 83%
    19:00 +26°C° 0.1 mm 2 mps 729 mmHg 86%
    20:00 +26°C° 0.1 mm 2 mps 729 mmHg 88%
    21:00 +25°C° 0.1 mm 2 mps 730 mmHg 91%
    22:00 +25°C° 0 mm 2 mps 730 mmHg 91%
    23:00 +25°C° 0 mm 2 mps 729 mmHg 91%

    25 July, Tuesday

    Time Temperature Precipitation Wind Pressure Humidity
    00:00 +24°C° 0 mm 3 mps 729 mmHg 92%
    01:00 +24°C° 0.1 mm 3 mps 729 mmHg 93%
    02:00 +24°C° 0.1 mm 3 mps 729 mmHg 93%
    03:00 +24°C° 0.1 mm 3 mps 728 mmHg 94%
    04:00 +24°C° 0.7 mm 3 mps 729 mmHg 95%
    05:00 +24°C° 0.7 mm 3 mps 729 mmHg 96%
    06:00 +24°C° 0.7 mm 2 mps 730 mmHg 96%
    07:00 +24°C° 0.1 mm 3 mps 730 mmHg 94%
    08:00 +25°C° 0.1 mm 3 mps 730 mmHg 92%
    09:00 +25°C° 0.1 mm 3 mps 731 mmHg 90%
    10:00 +26°C° 0.1 mm 3 mps 730 mmHg 88%
    11:00 +26°C° 0.1 mm 3 mps 730 mmHg 85%
    12:00 +27°C° 0.1 mm 3 mps 729 mmHg 83%
    13:00 +27°C° 0.6 mm 3 mps 729 mmHg 81%
    14:00 +28°C° 0.6 mm 3 mps 728 mmHg 79%
    15:00 +29°C° 0.6 mm 3 mps 727 mmHg 78%
    16:00 +28°C° 0.2 mm 2 mps 727 mmHg 81%
    17:00 +27°C° 0.2 mm 2 mps 727 mmHg 84%
    18:00 +26°C° 0.2 mm 2 mps 728 mmHg 88%
    19:00 +26°C° 0 mm 2 mps 728 mmHg 89%
    20:00 +25°C° 0 mm 2 mps 729 mmHg 91%
    21:00 +25°C° 0 mm 2 mps 729 mmHg 93%
    22:00 +25°C° 0.1 mm 3 mps 729 mmHg 93%
    23:00 +24°C° 0.1 mm 3 mps 729 mmHg 93%

    26 July, Wednesday

    Time Temperature Precipitation Wind Pressure Humidity
    00:00 +24°C° 0.1 mm 3 mps 729 mmHg 93%
    01:00 +24°C° 0.2 mm 3 mps 729 mmHg 93%
    02:00 +24°C° 0.2 mm 3 mps 728 mmHg 93%
    03:00 +24°C° 0.2 mm 3 mps 728 mmHg 93%
    04:00 +24°C° 0 mm 3 mps 728 mmHg 93%
    05:00 +22°C° 0 mm 3 mps 729 mmHg 93%
    06:00 +22°C° 0 mm 3 mps 729 mmHg 93%
    07:00 +22°C° 0.1 mm 3 mps 730 mmHg 92%
    08:00 +24°C° 0.1 mm 3 mps 730 mmHg 92%
    09:00 +24°C° 0.1 mm 3 mps 730 mmHg 91%
    10:00 +25°C° 0.1 mm 3 mps 730 mmHg 88%
    11:00 +25°C° 0.1 mm 3 mps 730 mmHg 84%
    12:00 +26°C° 0.1 mm 3 mps 729 mmHg 81%
    13:00 +27°C° 0.3 mm 2 mps 729 mmHg 77%
    14:00 +28°C° 0.3 mm 2 mps 728 mmHg 74%
    15:00 +29°C° 0.3 mm 2 mps 727 mmHg 70%
    16:00 +28°C° 0.4 mm 2 mps 727 mmHg 75%
    17:00 +27°C° 0.4 mm 1 mps 727 mmHg 80%
    18:00 +26°C° 0.4 mm 1 mps 728 mmHg 85%
    19:00 +26°C° 0.7 mm 1 mps 728 mmHg 88%
    20:00 +25°C° 0.7 mm 2 mps 728 mmHg 91%
    21:00 +24°C° 0.7 mm 2 mps 729 mmHg 94%
    22:00 +24°C° 0 mm 2 mps 729 mmHg 95%
    23:00 +24°C° 0 mm 2 mps 729 mmHg 96%
    Show more